(2020 PF3) |
Classification: Apollo [NEO] SPK-ID: 54051063 |
[ hide orbit diagram ]
For accurate long-term ephemerides, please instead use our Horizons system.This orbit viewer was implemented using two-body methods, and hence should not be used for determining accurate long-term trajectories (over several years or decades) or planetary encounter circumstances.
Orbital Elements at Epoch 2459000.5 (2020-May-31.0) TDB
Reference: JPL 12 (heliocentric ecliptic J2000)
Element | Value | Uncertainty (1-sigma) | Units |
e | .6014761599174628 | 0.00054611 | |
a | 2.490623128550169 | 0.0033962 | au |
q | .9925726933881958 | 6.6742e-06 | au |
i | 5.91592872363641 | 0.0037665 | deg |
node | 328.2836987400351 | 0.00052525 | deg |
peri | 28.45075407422167 | 0.00027427 | deg |
M | 333.3756318591838 | 0.055343 | deg |
tp | 2459106.678665090107 (2020-Sep-14.17866509) | 0.0035321 | TDB |
period | 1435.689261441631 3.93 | 2.9366 0.00804 | d yr |
n | .2507506392006514 | 0.00051289 | deg/d |
Q | 3.988673563712141 | 0.005439 | au |
|
| | Orbit Determination Parameters
Additional Information
|
[ show covariance matrix ]
Physical Parameter Table
Parameter |
Symbol |
Value |
Units |
Sigma |
Reference |
Notes |
absolute magnitude |
H |
25.806 |
|
.37121 |
12 |
autocmod 2.8 |
|
[ show close-approach data ]
|